Powrót do katalogu

SL-12 DEB

LostHEO
NORAD 41650·DEBRIS·🇷🇺 Russia

Wystrzelony Dec 25, 2008 z Baikonur Cosmodrome

Loading…

Następne Przeloty (najbliższe 24 godziny)

TLE

NieaktualneSource: Space-Track

Epoka: Dec 29, 2020, 22:15 UTC

1 41650U 08067W   20364.92725499  .00000016  00000-0  00000+0 0  9995
2 41650  67.6279 249.6833 5026850   3.1910 359.1785  4.17692954 68458

Śledź SL-12 DEB w czasie rzeczywistym z AllMySat

Download on the App Store